CZ-3C DEB, 40834

Orbit data source: Space-Track

CZ-3C DEB, 40834 is space debris in HEO originally from a launch on Sun, 31 Oct 2010 UTC launched from the Xichang Space Center, China (XSC). Debris objects in space refer to the collection of defunct objects orbiting the Earth. Examples of debris include non-operational satellites, rocket bodies, and fragments generated from explosions, collisions, or faulty payload assembly.

Loading next visibility...
Identifier
40834, 2010-057BB
Orbit
HEO
Country
Flag of CNCN / PRC
Related business
Manufacturer
CALT
Mission
Spacecraft
Bus & Motor
Unknown
Mass
Unknown
Launch date (UTC)
2010-10-31 (16 years ago)
Launch vehicle
Unknown
Launch site
Xichang Space Center, China (XSC)
Object type
Payload
Rocket body
Debris
Shape & HBR
Unknown shape, 0.3 m
Radar Cross Section
Medium (>0.1 m² and <1 m²)

Expand to show TLE details & history
Last TLE update: 8 hours ago

TLE from 8 hours ago
0 CZ-3C DEB
1 40834U 10057BB  26266.13350350  .00000064  00000-0  26600-3 0  9991
2 40834  19.9463 103.9942 7198746 151.6720 281.1942  2.19675397 92664
Epoch: 2026-09-23T03:12Z
TLE epoch observation values (Epoch: 2026-09-23T03:12:14.702Z)
Latitude
-0.00005°
Longitude
54.01307°
Altitude
26,455.032 km
Speed
2.887 km/s
True Right ascension
06h 56m 15s
True Declination
0° 00' 00"
Sunlit
Object was in daylight at epoch
Visualization orbit readout
Latitude
Unknown
Longitude
Unknown
Altitude
Unknown
Speed
Unknown
Apparent Right ascension
Unknown
Apparent Declination
Unknown
Sunlit
N/A
Visualization observer readout
Local Sidereal Time
04:08:14
Azimuth
Unknown
Elevation
Unknown
Doppler factor
Unknown
Orbital elements
Apogee altitude
36,620.383 km
Perigee altitude
625.268 km
Semi-major axis
25,000.962 km
Eccentricity
0.71987
Inclination
19.9463°
RAAN
103.9942°
Arg. of periapsis
151.672°
True anomaly
208.35715°
Mean anomaly
281.1942°
Eccentric anomaly
244.09334°
Mean motion
0.54905 °/min
Orbital period
655.68 mins
BSTAR
0.000266
Loading maneuver chart data...
Computing Atmospheric mass density...
Loading historical data...
Loading historical data...
Loading historical data...
Loading historical data...
Loading historical data...
Loading historical data...
Loading historical data...

Documentation

Showing up to 5 results
|